Starlink 30169

operational
NORAD ID: 57499 Int'l Des: 2023-113 Owner: SPXS Country: US Constellation: starlink
LEOCIRCULAR

About Starlink 30169

Description loading...

Live Position

Loading 3D Globe...

Upcoming Passes

Altitude History

Altitude vs Time

uPlot chart will show altitude changes over time

Two-Line Element Set

1 57499U 23113E 25306.43607775 .00000207 00000-0 30416-4 0 9996
2 57499 43.0029 336.4524 0001273 268.7326 91.3370 15.02533551124503
Epoch: Nov 2, 2025 • Age: 17 hours

Current Status

Altitude 559.9 km
Velocity 7.58 km/s
Sub-Earth Point -6.89°S, 68.47°E
Launch Date Aug 7, 2023
Age 2.2 years
Type internet

Technical Details

Classification Payload
Mass 730.00 kg
Dry Mass 700.00 kg
Total Mass 730.00 kg
Length 0.30 m
Diameter 4.10 m
Span 29.00 m
Shape Box + pan
Manufacturer SPXS
Bus Type Starlink V2M
Phase Status In Orbit
Owner/State SPXS/US

Large Constellations

Loading constellations...